| time (UTC) | temp F | wind direction | speed knots | gust knots | rain 1hr in | rain 24hr in | rain mn in | humidity % | barometer mb |
| 20260509070725 | 54 | 198 | 4.3 | 10.4 | 0.00 | 0.00 | 0.00 | 78 | 1014.3 |
| 20260509070226 | 54 | 195 | 4.3 | 10.4 | 0.00 | 0.00 | 0.00 | 78 | 1014.3 |
| 20260509065725 | 54 | 203 | 1.7 | 12.2 | 0.00 | 0.00 | 0.00 | 78 | 1014.3 |
| 20260509065227 | 54 | 211 | 1.7 | 12.2 | 0.00 | 0.00 | 0.00 | 78 | 1014.5 |
| 20260509064725 | 53 | 198 | 2.6 | 8.7 | 0.00 | 0.00 | 0.00 | 79 | 1014.6 |
| 20260509064225 | 53 | 202 | 4.3 | 9.6 | 0.00 | 0.00 | 0.00 | 79 | 1014.6 |
| 20260509063725 | 54 | 199 | 4.3 | 9.6 | 0.00 | 0.00 | 0.00 | 78 | 1014.8 |
| 20260509063226 | 54 | 203 | 3.5 | 9.6 | 0.00 | 0.00 | 0.00 | 77 | 1014.8 |
| 20260509062725 | 54 | 200 | 3.5 | 10.4 | 0.00 | 0.00 | 0.00 | 77 | 1014.9 |
| 20260509062226 | 54 | 204 | 3.5 | 10.4 | 0.00 | 0.00 | 0.00 | 77 | 1015.0 |
| 20260509061725 | 54 | 201 | 5.2 | 9.6 | 0.00 | 0.00 | 0.00 | 76 | 1015.0 |
| 20260509061225 | 54 | 196 | 2.6 | 9.6 | 0.00 | 0.00 | 0.00 | 77 | 1015.0 |
| 20260509060725 | 54 | 201 | 3.5 | 13.9 | 0.00 | 0.00 | 0.00 | 76 | 1015.1 |
| 20260509060226 | 54 | 199 | 5.2 | 13.9 | 0.00 | 0.00 | 0.00 | 76 | 1015.2 |
| 20260509055726 | 54 | 210 | 4.3 | 12.2 | 0.00 | 0.00 | 0.00 | 75 | 1015.2 |
| 20260509055228 | 54 | 201 | 3.5 | 9.6 | 0.00 | 0.00 | 0.00 | 74 | 1015.3 |
| 20260509054725 | 54 | 197 | 4.3 | 11.3 | 0.00 | 0.00 | 0.00 | 73 | 1015.4 |
| 20260509054225 | 54 | 200 | 0.9 | 20.9 | 0.00 | 0.00 | 0.00 | 73 | 1015.5 |
| 20260509053726 | 54 | 198 | 7.0 | 20.9 | 0.00 | 0.00 | 0.00 | 72 | 1015.6 |
| 20260509053228 | 54 | 206 | 2.6 | 11.3 | 0.00 | 0.00 | 0.00 | 72 | 1015.7 |
| 20260509052725 | 54 | 203 | 2.6 | 9.6 | 0.00 | 0.00 | 0.00 | 71 | 1015.8 |
| 20260509052225 | 54 | 196 | 3.5 | 11.3 | 0.00 | 0.00 | 0.00 | 70 | 1015.9 |
| 20260509051725 | 54 | 201 | 4.3 | 14.8 | 0.00 | 0.00 | 0.00 | 70 | 1015.9 |
| 20260509051227 | 55 | 194 | 5.2 | 18.2 | 0.00 | 0.00 | 0.00 | 69 | 1016.0 |
| 20260509050725 | 55 | 199 | 9.6 | 19.1 | 0.00 | 0.00 | 0.00 | 68 | 1015.8 |
| 20260509050228 | 55 | 199 | 10.4 | 21.7 | 0.00 | 0.00 | 0.00 | 68 | 1015.7 |
| 20260509045727 | 55 | 199 | 10.4 | 21.7 | 0.00 | 0.00 | 0.00 | 67 | 1015.9 |
| 20260509045227 | 56 | 201 | 10.4 | 17.4 | 0.00 | 0.00 | 0.00 | 66 | 1015.9 |
| 20260509044725 | 56 | 201 | 7.8 | 18.2 | 0.00 | 0.00 | 0.00 | 66 | 1015.9 |
| 20260509044226 | 56 | 199 | 11.3 | 18.2 | 0.00 | 0.00 | 0.00 | 66 | 1016.0 |
| 20260509043725 | 56 | 195 | 6.1 | 16.5 | 0.00 | 0.00 | 0.00 | 67 | 1015.9 |
| 20260509043229 | 56 | 201 | 7.8 | 15.6 | 0.00 | 0.00 | 0.00 | 68 | 1016.0 |
| 20260509042725 | 56 | 195 | 7.8 | 14.8 | 0.00 | 0.00 | 0.00 | 68 | 1015.9 |
| 20260509042227 | 56 | 198 | 6.1 | 11.3 | 0.00 | 0.00 | 0.00 | 68 | 1016.0 |
| 20260509041725 | 55 | 202 | 5.2 | 12.2 | 0.00 | 0.00 | 0.00 | 67 | 1016.1 |
| 20260509041226 | 55 | 197 | 7.0 | 12.2 | 0.00 | 0.00 | 0.00 | 66 | 1015.1 |
| 20260509040726 | 56 | 198 | 7.0 | 13.0 | 0.00 | 0.00 | 0.00 | 65 | 1015.2 |
| 20260509040226 | 56 | 198 | 4.3 | 13.0 | 0.00 | 0.00 | 0.00 | 64 | 1015.3 |
| 20260509035542 | 56 | 200 | 12.2 | 23.5 | 0.00 | 0.00 | 0.00 | 63 | 1015.3 |
| 20260509035042 | 56 | 199 | 10.4 | 23.5 | 0.00 | 0.00 | 0.00 | 62 | 1015.4 |
| 20260509034542 | 56 | 199 | 10.4 | 20.9 | 0.00 | 0.00 | 0.00 | 62 | 1015.3 |
| 20260509033933 | 56 | 199 | 10.4 | 19.1 | 0.00 | 0.00 | 0.00 | 61 | 1015.4 |
| 20260509033433 | 56 | 200 | 10.4 | 20.9 | 0.00 | 0.00 | 0.00 | 61 | 1015.4 |
| 20260509032933 | 56 | 194 | 11.3 | 20.9 | 0.00 | 0.00 | 0.00 | 61 | 1015.4 |
| 20260509032433 | 56 | 201 | 9.6 | 20.9 | 0.00 | 0.00 | 0.00 | 60 | 1015.4 |
| 20260509031933 | 56 | 201 | 13.0 | 21.7 | 0.00 | 0.00 | 0.00 | 61 | 1015.4 |
| 20260509031433 | 56 | 200 | 13.9 | 21.7 | 0.00 | 0.00 | 0.00 | 60 | 1015.5 |
| 20260509030933 | 56 | 192 | 7.8 | 23.5 | 0.00 | 0.00 | 0.00 | 61 | 1015.5 |
| 20260509030433 | 56 | 195 | 10.4 | 23.5 | 0.00 | 0.00 | 0.00 | 60 | 1015.5 |
| 20260509025933 | 56 | 196 | 7.8 | 21.7 | 0.00 | 0.00 | 0.00 | 60 | 1015.5 |
| 20260509025434 | 56 | 189 | 7.8 | 17.4 | 0.00 | 0.00 | 0.00 | 59 | 1015.6 |
| 20260509024933 | 56 | 190 | 3.5 | 19.1 | 0.00 | 0.00 | 0.00 | 59 | 1015.6 |
| 20260509024433 | 56 | 195 | 7.0 | 20.9 | 0.00 | 0.00 | 0.00 | 59 | 1015.5 |
| 20260509023933 | 57 | 191 | 8.7 | 20.9 | 0.00 | 0.00 | 0.00 | 57 | 1015.6 |
| 20260509023433 | 57 | 195 | 10.4 | 20.9 | 0.00 | 0.00 | 0.00 | 57 | 1015.6 |
| 20260509022933 | 57 | 192 | 9.6 | 19.1 | 0.00 | 0.00 | 0.00 | 57 | 1015.7 |
| 20260509022433 | 57 | 194 | 8.7 | 19.1 | 0.00 | 0.00 | 0.00 | 56 | 1015.6 |
| 20260509021933 | 57 | 186 | 7.0 | 14.8 | 0.00 | 0.00 | 0.00 | 55 | 1015.6 |
| 20260509021433 | 57 | 188 | 6.1 | 14.8 | 0.00 | 0.00 | 0.00 | 54 | 1015.7 |
| 20260509020933 | 57 | 196 | 6.1 | 10.4 | 0.00 | 0.00 | 0.00 | 54 | 1015.7 |
| 20260509020022 | 57 | 199 | 7.0 | 12.2 | 0.00 | 0.00 | 0.00 | 52 | 1015.9 |
| 20260509015524 | 57 | 188 | 5.2 | 18.2 | 0.00 | 0.00 | 0.00 | 54 | 1015.9 |
| 20260509015021 | 57 | 191 | 9.6 | 19.1 | 0.00 | 0.00 | 0.00 | 52 | 1015.8 |
| 20260509014521 | 57 | 190 | 9.6 | 19.1 | 0.00 | 0.00 | 0.00 | 52 | 1015.8 |
| 20260509014022 | 57 | 183 | 3.5 | 11.3 | 0.00 | 0.00 | 0.00 | 53 | 1015.9 |
| 20260509013524 | 57 | 190 | 4.3 | 11.3 | 0.00 | 0.00 | 0.00 | 52 | 1015.8 |
| 20260509013021 | 58 | 186 | 4.3 | 9.6 | 0.00 | 0.00 | 0.00 | 51 | 1015.7 |
| 20260509012523 | 58 | 183 | 2.6 | 8.7 | 0.00 | 0.00 | 0.00 | 50 | 1015.7 |
| 20260509012021 | 58 | 198 | 5.2 | 8.7 | 0.00 | 0.00 | 0.00 | 49 | 1015.8 |
| 20260509011524 | 58 | 195 | 4.3 | 7.8 | 0.00 | 0.00 | 0.00 | 49 | 1015.8 |
| 20260509010738 | 58 | 196 | 2.6 | 7.8 | 0.00 | 0.00 | 0.00 | 49 | 1015.7 |
| 20260509010241 | 58 | 199 | 3.5 | 7.8 | 0.00 | 0.00 | 0.00 | 48 | 1015.6 |
| 20260509005739 | 58 | 199 | 3.5 | 8.7 | 0.00 | 0.00 | 0.00 | 49 | 1015.6 |
| 20260509005238 | 58 | 202 | 4.3 | 8.7 | 0.00 | 0.00 | 0.00 | 48 | 1015.7 |
| 20260509004739 | 58 | 196 | 4.3 | 7.8 | 0.00 | 0.00 | 0.00 | 48 | 1015.6 |
| 20260509004238 | 58 | 198 | 4.3 | 7.8 | 0.00 | 0.00 | 0.00 | 49 | 1015.5 |
| 20260509003739 | 58 | 196 | 4.3 | 11.3 | 0.00 | 0.00 | 0.00 | 49 | 1015.6 |
| 20260509003241 | 58 | 195 | 2.6 | 11.3 | 0.00 | 0.00 | 0.00 | 50 | 1015.5 |
| 20260509002738 | 58 | 195 | 2.6 | 10.4 | 0.00 | 0.00 | 0.00 | 49 | 1015.5 |
| 20260509002239 | 58 | 196 | 3.5 | 10.4 | 0.00 | 0.00 | 0.00 | 49 | 1015.4 |
| 20260509001740 | 58 | 195 | 2.6 | 7.8 | 0.00 | 0.00 | 0.00 | 49 | 1015.4 |
| 20260509001238 | 58 | 195 | 3.5 | 7.8 | 0.00 | 0.00 | 0.00 | 48 | 1015.3 |
| 20260509000738 | 58 | 196 | 3.5 | 7.0 | 0.00 | 0.00 | 0.00 | 48 | 1015.4 |
| 20260509000241 | 58 | 195 | 2.6 | 7.8 | 0.00 | 0.00 | 0.00 | 48 | 1015.3 |
| 20260508235738 | 58 | 194 | 3.5 | 7.8 | 0.00 | 0.00 | 0.00 | 48 | 1015.3 |
| 20260508235212 | 59 | 192 | 3.5 | 7.8 | 0.00 | 0.00 | 0.00 | 47 | 1015.3 |
| 20260508234712 | 59 | 192 | 2.6 | 7.8 | 0.00 | 0.00 | 0.00 | 48 | 1015.3 |
| 20260508234212 | 59 | 196 | 1.7 | 7.8 | 0.00 | 0.00 | 0.00 | 47 | 1015.3 |
| 20260508233712 | 59 | 194 | 4.3 | 7.8 | 0.00 | 0.00 | 0.00 | 46 | 1015.4 |
| 20260508233212 | 59 | 195 | 1.7 | 7.0 | 0.00 | 0.00 | 0.00 | 47 | 1015.5 |
| 20260508232712 | 59 | 194 | 2.6 | 7.0 | 0.00 | 0.00 | 0.00 | 47 | 1015.6 |
| 20260508232212 | 59 | 194 | 2.6 | 7.8 | 0.00 | 0.00 | 0.00 | 47 | 1015.6 |
| 20260508231712 | 59 | 195 | 2.6 | 7.8 | 0.00 | 0.00 | 0.00 | 45 | 1015.5 |
| 20260508231212 | 59 | 196 | 2.6 | 7.8 | 0.00 | 0.00 | 0.00 | 45 | 1015.5 |
| 20260508230712 | 59 | 196 | 2.6 | 7.8 | 0.00 | 0.00 | 0.00 | 44 | 1015.5 |
| 20260508230212 | 59 | 195 | 3.5 | 7.8 | 0.00 | 0.00 | 0.00 | 45 | 1015.4 |
| 20260508225219 | 59 | 191 | 5.2 | 8.7 | 0.00 | 0.00 | 0.00 | 45 | 1015.3 |
| 20260508224723 | 59 | 198 | 2.6 | 8.7 | 0.00 | 0.00 | 0.00 | 46 | 1015.3 |
| 20260508224219 | 60 | 192 | 4.3 | 8.7 | 0.00 | 0.00 | 0.00 | 44 | 1015.3 |
| 20260508223719 | 60 | 197 | 2.6 | 11.3 | 0.00 | 0.00 | 0.00 | 45 | 1015.3 |
| 20260508223219 | 60 | 196 | 2.6 | 11.3 | 0.00 | 0.00 | 0.00 | 44 | 1015.3 |
| 20260508222719 | 60 | 201 | 4.3 | 8.7 | 0.00 | 0.00 | 0.00 | 44 | 1015.3 |
| 20260508222219 | 60 | 187 | 2.6 | 8.7 | 0.00 | 0.00 | 0.00 | 45 | 1015.2 |
| 20260508221719 | 60 | 195 | 5.2 | 8.7 | 0.00 | 0.00 | 0.00 | 45 | 1015.1 |
| 20260508221219 | 60 | 187 | 1.7 | 7.0 | 0.00 | 0.00 | 0.00 | 45 | 1015.1 |
| 20260508220720 | 61 | 192 | 1.7 | 7.0 | 0.00 | 0.00 | 0.00 | 48 | 1015.1 |
| 20260508220220 | 61 | 194 | 1.7 | 7.8 | 0.00 | 0.00 | 0.00 | 44 | 1015.1 |
| 20260508215720 | 61 | 194 | 3.5 | 8.7 | 0.00 | 0.00 | 0.00 | 45 | 1015.1 |
| 20260508215219 | 61 | 196 | 2.6 | 8.7 | 0.00 | 0.00 | 0.00 | 44 | 1015.3 |
| 20260508214719 | 61 | 196 | 1.7 | 7.0 | 0.00 | 0.00 | 0.00 | 43 | 1015.3 |
| 20260508214219 | 61 | 194 | 2.6 | 7.0 | 0.00 | 0.00 | 0.00 | 42 | 1015.4 |
| 20260508213719 | 62 | 189 | 1.7 | 5.2 | 0.00 | 0.00 | 0.00 | 41 | 1015.4 |
| 20260508213219 | 62 | 190 | 1.7 | 5.2 | 0.00 | 0.00 | 0.00 | 41 | 1015.3 |
| 20260508212338 | 62 | 191 | 2.6 | 7.8 | 0.00 | 0.00 | 0.00 | 41 | 1015.2 |
| 20260508211838 | 62 | 193 | 2.6 | 7.8 | 0.00 | 0.00 | 0.00 | 41 | 1015.1 |
| 20260508211338 | 62 | 193 | 1.7 | 7.0 | 0.00 | 0.00 | 0.00 | 40 | 1015.4 |
| 20260508210718 | 63 | 206 | 2.6 | 8.7 | 0.00 | 0.00 | 0.00 | 42 | 1015.6 |
| 20260508205717 | 63 | 187 | 4.3 | 9.6 | 0.00 | 0.00 | 0.00 | 38 | 1015.6 |
| 20260508205217 | 63 | 188 | 3.5 | 7.8 | 0.00 | 0.00 | 0.00 | 40 | 1015.6 |
| 20260508204717 | 63 | 192 | 1.7 | 7.0 | 0.00 | 0.00 | 0.00 | 42 | 1015.7 |
| 20260508204217 | 63 | 192 | 1.7 | 10.4 | 0.00 | 0.00 | 0.00 | 37 | 1016.0 |
| 20260508203717 | 63 | 183 | 3.5 | 10.4 | 0.00 | 0.00 | 0.00 | 39 | 1016.2 |
| 20260508203004 | 64 | 178 | 1.7 | 8.7 | 0.00 | 0.00 | 0.00 | 40 | 1016.2 |
| 20260508202504 | 64 | 178 | 2.6 | 8.7 | 0.00 | 0.00 | 0.00 | 41 | 1016.2 |
| 20260508202004 | 63 | 179 | 2.6 | 13.0 | 0.00 | 0.00 | 0.00 | 41 | 1016.2 |
| 20260508201504 | 64 | 182 | 4.3 | 13.0 | 0.00 | 0.00 | 0.00 | 40 | 1016.1 |
| 20260508201004 | 64 | 187 | 4.3 | 11.3 | 0.00 | 0.00 | 0.00 | 40 | 1016.3 |
| 20260508200504 | 64 | 189 | 4.3 | 7.8 | 0.00 | 0.00 | 0.00 | 40 | 1016.3 |
| 20260508195845 | 65 | 192 | 2.6 | 11.3 | 0.00 | 0.00 | 0.00 | 37 | 1016.3 |
| 20260508195346 | 65 | 182 | 2.6 | 10.4 | 0.00 | 0.00 | 0.00 | 42 | 1016.2 |
| 20260508194847 | 65 | 183 | 3.5 | 10.4 | 0.00 | 0.00 | 0.00 | 39 | 1016.3 |
| 20260508194345 | 64 | 184 | 5.2 | 10.4 | 0.00 | 0.01 | 0.00 | 39 | 1016.3 |
| 20260508193845 | 64 | 187 | 3.5 | 10.4 | 0.00 | 0.04 | 0.00 | 40 | 1016.5 |
| 20260508193345 | 64 | 181 | 1.7 | 8.7 | 0.00 | 0.04 | 0.00 | 43 | 1016.5 |
| 20260508192845 | 63 | 183 | 3.5 | 8.7 | 0.00 | 0.04 | 0.00 | 42 | 1016.7 |
| 20260508192345 | 63 | 192 | 3.5 | 7.8 | 0.00 | 0.04 | 0.00 | 41 | 1016.8 |
| 20260508191847 | 63 | 200 | 2.6 | 11.3 | 0.00 | 0.04 | 0.00 | 38 | 1016.9 |
| 20260508191345 | 65 | 181 | 5.2 | 11.3 | 0.00 | 0.04 | 0.00 | 38 | 1016.9 |
| 20260508190845 | 64 | 181 | 1.7 | 9.6 | 0.00 | 0.04 | 0.00 | 41 | 1017.0 |
| 20260508190345 | 63 | 170 | 1.7 | 9.6 | 0.00 | 0.04 | 0.00 | 40 | 1017.0 |
| 20260508185845 | 64 | 173 | 4.3 | 9.6 | 0.00 | 0.04 | 0.00 | 37 | 1017.0 |
| 20260508185345 | 65 | 174 | 3.5 | 8.7 | 0.00 | 0.05 | 0.00 | 41 | 1017.0 |
| 20260508184845 | 64 | 175 | 5.2 | 8.7 | 0.00 | 0.05 | 0.00 | 40 | 1017.0 |
| 20260508184345 | 64 | 184 | 3.5 | 7.8 | 0.00 | 0.05 | 0.00 | 40 | 1017.2 |
| 20260508183845 | 64 | 184 | 4.3 | 8.7 | 0.00 | 0.05 | 0.00 | 40 | 1017.2 |
| 20260508183345 | 63 | 173 | 3.5 | 9.6 | 0.00 | 0.05 | 0.00 | 41 | 1017.1 |
| 20260508182845 | 64 | 184 | 5.2 | 9.6 | 0.00 | 0.05 | 0.00 | 40 | 1017.2 |
| 20260508182345 | 64 | 194 | 5.2 | 7.8 | 0.00 | 0.05 | 0.00 | 37 | 1017.3 |
| 20260508181544 | 63 | 188 | 3.5 | 7.8 | 0.00 | 0.05 | 0.00 | 37 | 1017.5 |
| 20260508181044 | 63 | 177 | 2.6 | 7.8 | 0.00 | 0.05 | 0.00 | 42 | 1017.5 |
| 20260508180545 | 64 | 171 | 3.5 | 7.8 | 0.00 | 0.05 | 0.00 | 44 | 1017.7 |
| 20260508175820 | 63 | 164 | 1.7 | 8.7 | 0.00 | 0.05 | 0.00 | 45 | 1017.8 |
| 20260508175318 | 63 | 167 | 6.1 | 8.7 | 0.00 | 0.05 | 0.00 | 39 | 1017.8 |
| 20260508174818 | 64 | 189 | 1.7 | 7.8 | 0.00 | 0.05 | 0.00 | 39 | 1017.9 |
| 20260508174317 | 65 | 189 | 2.6 | 6.1 | 0.00 | 0.05 | 0.00 | 42 | 1017.9 |
| 20260508173818 | 64 | 174 | 1.7 | 6.1 | 0.00 | 0.05 | 0.00 | 49 | 1017.9 |
| 20260508173318 | 63 | 175 | 1.7 | 7.0 | 0.00 | 0.05 | 0.00 | 43 | 1017.9 |
| 20260508172821 | 64 | 172 | 3.5 | 7.8 | 0.00 | 0.05 | 0.00 | 42 | 1018.0 |
| 20260508172319 | 63 | 166 | 2.6 | 7.8 | 0.00 | 0.05 | 0.00 | 46 | 1018.0 |
| 20260508171819 | 64 | 166 | 2.6 | 5.2 | 0.00 | 0.07 | 0.00 | 39 | 1018.2 |
| 20260508171317 | 63 | 166 | 1.7 | 7.0 | 0.00 | 0.07 | 0.00 | 44 | 1018.2 |
| 20260508170817 | 63 | 166 | 2.6 | 7.0 | 0.00 | 0.07 | 0.00 | 41 | 1018.2 |
| 20260508170317 | 63 | 165 | 0.9 | 6.1 | 0.00 | 0.07 | 0.00 | 43 | 1018.3 |
| 20260508165823 | 62 | 0 | 0.0 | 5.2 | 0.00 | 0.07 | 0.00 | 45 | 1018.3 |
| 20260508165317 | 61 | 165 | 0.9 | 9.6 | 0.00 | 0.07 | 0.00 | 43 | 1018.4 |
| 20260508164818 | 61 | 166 | 3.5 | 9.6 | 0.00 | 0.07 | 0.00 | 37 | 1018.6 |
| 20260508164317 | 62 | 165 | 2.6 | 8.7 | 0.00 | 0.07 | 0.00 | 39 | 1018.7 |
| 20260508163818 | 63 | 170 | 3.5 | 7.8 | 0.00 | 0.07 | 0.00 | 45 | 1018.7 |
| 20260508163318 | 62 | 176 | 2.6 | 7.0 | 0.00 | 0.07 | 0.00 | 43 | 1018.7 |
| 20260508162820 | 61 | 0 | 0.0 | 6.1 | 0.00 | 0.07 | 0.00 | 48 | 1018.9 |
| 20260508162318 | 61 | 174 | 1.7 | 9.6 | 0.00 | 0.07 | 0.00 | 43 | 1018.9 |
| 20260508161819 | 61 | 172 | 2.6 | 9.6 | 0.00 | 0.07 | 0.00 | 44 | 1019.1 |
| 20260508161317 | 62 | 177 | 0.9 | 5.2 | 0.00 | 0.07 | 0.00 | 46 | 1019.2 |
| 20260508160818 | 62 | 0 | 0.0 | 6.1 | 0.00 | 0.07 | 0.00 | 48 | 1019.2 |
| 20260508160317 | 62 | 180 | 0.9 | 6.1 | 0.00 | 0.07 | 0.07 | 43 | 1019.3 |
| 20260508155822 | 62 | 0 | 0.0 | 1.7 | 0.00 | 0.07 | 0.07 | 51 | 1019.4 |
| 20260508155317 | 60 | 0 | 0.0 | 5.2 | 0.00 | 0.07 | 0.07 | 50 | 1019.4 |
| 20260508154819 | 60 | 0 | 0.0 | 5.2 | 0.00 | 0.07 | 0.07 | 49 | 1019.4 |
| 20260508154317 | 60 | 0 | 0.0 | 5.2 | 0.00 | 0.07 | 0.07 | 45 | 1019.5 |
| 20260508153818 | 59 | 0 | 0.0 | 5.2 | 0.00 | 0.07 | 0.07 | 44 | 1019.5 |
| 20260508153318 | 60 | 0 | 0.0 | 4.3 | 0.00 | 0.07 | 0.07 | 45 | 1019.5 |
| 20260508152821 | 60 | 0 | 0.0 | 4.3 | 0.00 | 0.07 | 0.07 | 46 | 1019.6 |
| 20260508152317 | 60 | 0 | 0.0 | 7.8 | 0.00 | 0.07 | 0.07 | 50 | 1019.6 |
| 20260508151818 | 60 | 324 | 1.7 | 7.8 | 0.00 | 0.07 | 0.07 | 46 | 1019.6 |
| 20260508151317 | 59 | 0 | 0.0 | 5.2 | 0.00 | 0.07 | 0.07 | 50 | 1019.6 |
| 20260508150817 | 58 | 0 | 0.0 | 3.5 | 0.00 | 0.07 | 0.07 | 41 | 1019.6 |
| 20260508150317 | 59 | 0 | 0.0 | 3.5 | 0.00 | 0.07 | 0.07 | 47 | 1019.6 |
| 20260508145819 | 59 | 0 | 0.0 | 3.5 | 0.00 | 0.07 | 0.07 | 50 | 1019.7 |
| 20260508145317 | 59 | 0 | 0.0 | 3.5 | 0.00 | 0.07 | 0.07 | 49 | 1019.8 |
| 20260508144818 | 59 | 0 | 0.0 | 0.0 | 0.00 | 0.07 | 0.07 | 52 | 1019.7 |
| 20260508144317 | 58 | 0 | 0.0 | 0.0 | 0.00 | 0.07 | 0.07 | 48 | 1019.7 |
| 20260508143817 | 57 | 0 | 0.0 | 0.0 | 0.00 | 0.07 | 0.07 | 45 | 1019.6 |
| 20260508143317 | 56 | 0 | 0.0 | 8.7 | 0.00 | 0.07 | 0.07 | 48 | 1019.7 |
| 20260508142819 | 56 | 0 | 0.0 | 8.7 | 0.00 | 0.07 | 0.07 | 52 | 1019.7 |
| 20260508142317 | 56 | 0 | 0.0 | 0.0 | 0.00 | 0.07 | 0.07 | 53 | 1019.6 |
| 20260508141818 | 55 | 0 | 0.0 | 3.5 | 0.00 | 0.07 | 0.07 | 51 | 1019.5 |
| 20260508141317 | 55 | 0 | 0.0 | 3.5 | 0.00 | 0.07 | 0.07 | 55 | 1019.4 |
| 20260508140818 | 55 | 0 | 0.0 | 2.6 | 0.00 | 0.07 | 0.07 | 54 | 1019.4 |
| 20260508140317 | 54 | 0 | 0.0 | 3.5 | 0.00 | 0.07 | 0.07 | 54 | 1019.4 |
| 20260508135818 | 54 | 0 | 0.0 | 4.3 | 0.00 | 0.07 | 0.07 | 56 | 1019.4 |
| 20260508135317 | 54 | 327 | 0.9 | 4.3 | 0.00 | 0.07 | 0.07 | 52 | 1019.4 |
| 20260508134818 | 54 | 0 | 0.0 | 8.7 | 0.00 | 0.07 | 0.07 | 54 | 1019.3 |
| 20260508134317 | 53 | 0 | 0.0 | 8.7 | 0.00 | 0.07 | 0.07 | 53 | 1019.3 |
| 20260508133817 | 53 | 327 | 0.9 | 5.2 | 0.00 | 0.07 | 0.07 | 52 | 1019.3 |
| 20260508133318 | 53 | 0 | 0.0 | 5.2 | 0.00 | 0.07 | 0.07 | 56 | 1019.2 |
| 20260508132823 | 53 | 327 | 0.9 | 5.2 | 0.00 | 0.07 | 0.07 | 53 | 1019.2 |
| 20260508132317 | 53 | 0 | 0.0 | 3.5 | 0.00 | 0.07 | 0.07 | 53 | 1019.1 |
| 20260508131818 | 52 | 0 | 0.0 | 4.3 | 0.00 | 0.07 | 0.07 | 54 | 1019.0 |
| 20260508131318 | 52 | 0 | 0.0 | 4.3 | 0.00 | 0.07 | 0.07 | 52 | 1019.0 |
| 20260508130817 | 52 | 0 | 0.0 | 3.5 | 0.00 | 0.07 | 0.07 | 57 | 1019.0 |
| 20260508130318 | 52 | 0 | 0.0 | 4.3 | 0.00 | 0.07 | 0.07 | 59 | 1019.0 |
| 20260508125825 | 51 | 327 | 0.9 | 5.2 | 0.00 | 0.07 | 0.07 | 57 | 1018.9 |
| 20260508125318 | 51 | 0 | 0.0 | 5.2 | 0.00 | 0.07 | 0.07 | 59 | 1018.9 |
| 20260508124819 | 51 | 327 | 1.7 | 4.3 | 0.00 | 0.07 | 0.07 | 61 | 1018.8 |
| 20260508123610 | 50 | 0 | 0.0 | 3.5 | 0.00 | 0.07 | 0.07 | 60 | 1018.7 |
| 20260508123107 | 50 | 0 | 0.0 | 2.6 | 0.00 | 0.07 | 0.07 | 63 | 1018.8 |
| 20260508122606 | 49 | 0 | 0.0 | 4.3 | 0.00 | 0.07 | 0.07 | 64 | 1018.7 |
| 20260508122107 | 49 | 328 | 1.7 | 4.3 | 0.00 | 0.08 | 0.07 | 62 | 1018.7 |
| 20260508121608 | 49 | 0 | 0.0 | 0.9 | 0.00 | 0.08 | 0.07 | 63 | 1018.7 |
| 20260508120337 | 49 | 0 | 0.0 | 5.2 | 0.00 | 0.08 | 0.07 | 66 | 1018.6 |
| 20260508115836 | 48 | 0 | 0.0 | 5.2 | 0.00 | 0.08 | 0.07 | 65 | 1018.4 |
| 20260508113958 | 47 | 0 | 0.0 | 0.0 | 0.00 | 0.08 | 0.07 | 67 | 1018.2 |
| 20260508113458 | 47 | 0 | 0.0 | 0.0 | 0.00 | 0.08 | 0.07 | 70 | 1018.1 |
| 20260508112958 | 47 | 0 | 0.0 | 2.6 | 0.00 | 0.08 | 0.07 | 68 | 1018.1 |
| 20260508112458 | 46 | 0 | 0.0 | 5.2 | 0.00 | 0.08 | 0.07 | 67 | 1018.0 |
| 20260508111958 | 46 | 0 | 0.0 | 7.8 | 0.00 | 0.08 | 0.07 | 69 | 1018.0 |
| 20260508111459 | 46 | 328 | 0.9 | 7.8 | 0.00 | 0.08 | 0.07 | 68 | 1017.8 |
| 20260508110958 | 46 | 328 | 1.7 | 11.3 | 0.00 | 0.08 | 0.07 | 68 | 1017.7 |
| 20260508110458 | 46 | 328 | 3.5 | 11.3 | 0.00 | 0.08 | 0.07 | 67 | 1017.6 |
| 20260508105958 | 46 | 328 | 2.6 | 10.4 | 0.00 | 0.08 | 0.07 | 67 | 1017.5 |
| 20260508105458 | 46 | 0 | 0.0 | 13.0 | 0.00 | 0.08 | 0.07 | 67 | 1017.5 |
| 20260508104958 | 46 | 328 | 0.9 | 13.0 | 0.00 | 0.08 | 0.07 | 67 | 1017.4 |
| 20260508104458 | 45 | 328 | 2.6 | 7.8 | 0.00 | 0.08 | 0.07 | 67 | 1017.3 |
| 20260508103958 | 45 | 329 | 2.6 | 7.8 | 0.00 | 0.08 | 0.07 | 67 | 1017.2 |
| 20260508103458 | 45 | 329 | 2.6 | 7.8 | 0.00 | 0.08 | 0.07 | 68 | 1017.2 |
| 20260508103000 | 45 | 330 | 2.6 | 7.8 | 0.00 | 0.08 | 0.07 | 68 | 1017.1 |
| 20260508102458 | 45 | 0 | 0.0 | 8.7 | 0.00 | 0.08 | 0.07 | 67 | 1017.0 |
| 20260508101959 | 45 | 0 | 0.0 | 22.6 | 0.00 | 0.08 | 0.07 | 68 | 1017.0 |
| 20260508101458 | 45 | 330 | 3.5 | 22.6 | 0.00 | 0.08 | 0.07 | 67 | 1016.9 |
| 20260508100737 | 46 | 329 | 6.1 | 13.9 | 0.00 | 0.08 | 0.07 | 68 | 1016.9 |
| 20260508100237 | 45 | 334 | 6.1 | 11.3 | 0.00 | 0.08 | 0.07 | 69 | 1016.7 |
| 20260508095739 | 45 | 333 | 3.5 | 10.4 | 0.00 | 0.08 | 0.07 | 71 | 1016.7 |
| 20260508095421 | 45 | 334 | 1.7 | 13.0 | 0.00 | 0.08 | 0.07 | 71 | 1016.5 |
| 20260508095237 | 45 | 334 | 0.9 | 10.4 | 0.00 | 0.08 | 0.07 | 70 | 1016.6 |
| 20260508094738 | 45 | 334 | 1.7 | 13.0 | 0.00 | 0.08 | 0.07 | 71 | 1016.5 |
| 20260508094237 | 45 | 331 | 4.3 | 13.9 | 0.00 | 0.08 | 0.07 | 71 | 1016.5 |
| 20260508093737 | 45 | 332 | 2.6 | 13.9 | 0.00 | 0.08 | 0.07 | 71 | 1016.4 |
| 20260508093237 | 45 | 331 | 7.0 | 12.2 | 0.00 | 0.08 | 0.07 | 72 | 1016.3 |
| 20260508092737 | 46 | 330 | 3.5 | 8.7 | 0.00 | 0.08 | 0.07 | 71 | 1016.2 |
| 20260508092551 | 45 | 327 | 2.6 | 8.7 | 0.00 | 0.08 | 0.07 | 73 | 1016.2 |
| 20260508092237 | 46 | 330 | 0.9 | 7.0 | 0.00 | 0.08 | 0.07 | 70 | 1016.3 |
| 20260508091237 | 45 | 331 | 0.9 | 11.3 | 0.00 | 0.08 | 0.07 | 72 | 1016.2 |
| 20260508090736 | 45 | 331 | 1.7 | 10.4 | 0.00 | 0.08 | 0.07 | 73 | 1016.1 |
| 20260508090236 | 45 | 327 | 2.6 | 8.7 | 0.00 | 0.08 | 0.07 | 73 | 1016.2 |
| 20260508085736 | 46 | 0 | 0.0 | 10.4 | 0.00 | 0.08 | 0.07 | 73 | 1016.2 |
| 20260508085236 | 46 | 0 | 0.0 | 11.3 | 0.00 | 0.08 | 0.07 | 73 | 1016.1 |
| 20260508084736 | 46 | 325 | 1.7 | 14.8 | 0.00 | 0.08 | 0.07 | 72 | 1016.0 |
| 20260508084236 | 46 | 323 | 4.3 | 14.8 | 0.00 | 0.08 | 0.07 | 72 | 1016.1 |
| 20260508083736 | 46 | 323 | 2.6 | 13.9 | 0.00 | 0.08 | 0.07 | 71 | 1016.1 |
| 20260508083236 | 46 | 323 | 6.1 | 13.9 | 0.00 | 0.08 | 0.07 | 72 | 1015.9 |
| 20260508082736 | 46 | 323 | 5.2 | 9.6 | 0.00 | 0.08 | 0.07 | 73 | 1015.8 |
| 20260508082238 | 46 | 324 | 1.7 | 8.7 | 0.00 | 0.08 | 0.07 | 73 | 1015.8 |
| 20260508081736 | 46 | 326 | 0.9 | 11.3 | 0.00 | 0.08 | 0.07 | 74 | 1015.8 |
| 20260508081237 | 47 | 326 | 1.7 | 11.3 | 0.00 | 0.08 | 0.07 | 73 | 1015.7 |
| 20260508081157 | 47 | 0 | 0.0 | 4.3 | 0.00 | 0.08 | 0.07 | 74 | 1015.5 |
| 20260508080500 | 47 | 328 | 3.5 | 15.6 | 0.00 | 0.08 | 0.07 | 73 | 1015.5 |
| 20260508080000 | 47 | 328 | 0.9 | 9.6 | 0.00 | 0.08 | 0.07 | 74 | 1015.6 |
| 20260508075500 | 47 | 328 | 0.9 | 9.6 | 0.00 | 0.08 | 0.07 | 74 | 1015.5 |
| 20260508075000 | 47 | 328 | 0.9 | 5.2 | 0.00 | 0.08 | 0.07 | 75 | 1015.5 |
| 20260508074500 | 47 | 0 | 0.0 | 4.3 | 0.00 | 0.08 | 0.07 | 74 | 1015.5 |
| 20260508073627 | 48 | 327 | 2.6 | 10.4 | 0.00 | 0.08 | 0.07 | 76 | 1015.2 |
| 20260508073557 | 47 | 327 | 1.7 | 9.6 | 0.00 | 0.08 | 0.07 | 75 | 1015.4 |
| 20260508073057 | 47 | 326 | 0.9 | 9.6 | 0.00 | 0.08 | 0.07 | 75 | 1015.3 |
| 20260508072559 | 47 | 323 | 2.6 | 9.6 | 0.00 | 0.08 | 0.07 | 74 | 1015.3 |
| 20260508072057 | 47 | 326 | 2.6 | 9.6 | 0.00 | 0.08 | 0.07 | 75 | 1015.2 |
| 20260508071558 | 48 | 327 | 2.6 | 10.4 | 0.00 | 0.08 | 0.07 | 76 | 1015.2 |